Startpagina
METAR-TAF:

METAR-TAF

Vliegvelden :

Guwahati, India

breedte: 26-06-22N, lengte: 091-35-09E, hoogte: 49 m

Actueel weer

Dit bericht is 42 minuten geleden gemaakt, om 18:00 UTC
Weinig wind
Temperatuur 20°C
Vochtigheid 94%
Druk 1011 hPa
Zicht: 2500 m
Weinig wolken op 2000 ft
Verspreide wolken op 10000 ft
nevel

METAR: VEGT 161800Z 00000KT 2500 BR FEW020 SCT100 20/19 Q1011 NOSIG

Tijdstip: 00:12 (18:42 UTC)


TAF: ontbreekt

Waarnemingen en weersverwachtingen van meer dan 4000 vliegvelden (METAR en TAF).

De beschikbare stations zijn de gele en rode punten op de kaart.

Ga met uw muis naar het station om de naam te zien.

Klik dan om waarnemingen en weersverwachtingen te zien.

kaart wijzigen: klik op de groene knoppen met een zwart kruis om in te zoomen, op de groene knop met een streepje om uit te zoomen of op de groene pijlen voor aangrenzende kaarten.


METAR-TAF: